This is the latest recevied weather packets stored in our database for station/object IK2YOU-3. If no packets are shown the sender has not sent any weather packets the latest 10 day(s).
| Time | Temp. | Humidity | Pressure | Rain* | Wind** | Luminosity | Snow |
|---|---|---|---|---|---|---|---|
| 1777635371 | 20.56° C | 34% | 1025.1 hPa | 0 mm | - | 576 W/m² | - |
| 1777634643 | 20° C | 34% | 1025.2 hPa | 0 mm | - | 594 W/m² | - |
| 1777634173 | 20° C | 35% | 1025.3 hPa | 0 mm | - | 535 W/m² | - |
| 1777633443 | 19.44° C | 35% | 1025.4 hPa | 0 mm | - | 546 W/m² | - |
| 1777632843 | 19.44° C | 34% | 1025.5 hPa | 0 mm | - | 476 W/m² | - |
| 1777632243 | 18.89° C | 35% | 1025.5 hPa | 0 mm | - | 492 W/m² | - |
| 1777631771 | 18.89° C | 34% | 1025.6 hPa | 0 mm | - | 612 W/m² | - |
| 1777631043 | 19.44° C | 35% | 1025.7 hPa | 0 mm | - | 565 W/m² | - |
| 1777630443 | 19.44° C | 36% | 1025.7 hPa | 0 mm | - | 458 W/m² | - |
| 1777629844 | 18.89° C | 38% | 1025.8 hPa | 0 mm | - | 518 W/m² | - |
| 1777629370 | 18.33° C | 37% | 1025.8 hPa | 0 mm | - | 513 W/m² | - |
| 1777628644 | 18.33° C | 38% | 1025.9 hPa | 0 mm | - | 511 W/m² | - |
| 1777628043 | 18.33° C | 38% | 1025.9 hPa | 0 mm | - | 533 W/m² | - |
| 1777627443 | 17.78° C | 42% | 1026 hPa | 0 mm | - | 497 W/m² | - |
| 1777626843 | 17.78° C | 41% | 1026 hPa | 0 mm | - | 518 W/m² | - |
| 1777626370 | 17.22° C | 43% | 1026 hPa | 0 mm | - | 531 W/m² | - |
| 1777625643 | 17.78° C | 45% | 1026.1 hPa | 0 mm | - | 465 W/m² | - |
| 1777625044 | 16.67° C | 44% | 1026.1 hPa | 0 mm | - | 491 W/m² | - |
| 1777624573 | 16.11° C | 44% | 1026.1 hPa | 0 mm | - | 488 W/m² | - |
| 1777623842 | 15.56° C | 46% | 1026 hPa | 0 mm | - | 333 W/m² | - |
| 1777623370 | 16.11° C | 47% | 1026 hPa | 0 mm | - | 366 W/m² | - |
| 1777622776 | 15.56° C | 45% | 1025.9 hPa | 0 mm | - | 395 W/m² | - |
| 1777622041 | 15.56° C | 46% | 1025.8 hPa | 0 mm | - | 399 W/m² | - |
| 1777621441 | 15.56° C | 45% | 1025.8 hPa | 0 mm | - | 349 W/m² | - |
| 1777620841 | 15° C | 45% | 1025.7 hPa | 0 mm | - | 321 W/m² | - |
* Rain latest hour (hover to see other rain measurements)
** Current wind speed in m/s (hover to see current wind gust speed)